Startpagina
METAR-TAF:

METAR-TAF

Vliegvelden :

Challis Airport

Challis, Idaho, Verenigde Staten

breedte: 44-31-22N, lengte: 114-12-54W, hoogte: 1546 m

Actueel weer

Dit bericht is 59 minuten geleden gemaakt, om 22:55 UTC
Wind 8 kt uit het westnoordwesten
Temperatuur 6°C
Vochtigheid 49%
Druk 1017 hPa
Zicht: 16.1 km
Geheel bewolkt op 6000 ft

METAR: KLLJ 232255Z AUTO 30008KT 10SM OVC060 06/M04 A3003 RMK AO2 SLP182 T00611044

Tijdstip: 16:54 (23:54 UTC)


TAF: ontbreekt

Waarnemingen en weersverwachtingen van meer dan 4000 vliegvelden (METAR en TAF).

De beschikbare stations zijn de gele en rode punten op de kaart.

Ga met uw muis naar het station om de naam te zien.

Klik dan om waarnemingen en weersverwachtingen te zien.

kaart wijzigen: klik op de groene knoppen met een zwart kruis om in te zoomen, op de groene knop met een streepje om uit te zoomen of op de groene pijlen voor aangrenzende kaarten.


METAR-TAF: